TimeEST,TemperatureF,Dew PointF,Humidity,Sea Level PressureIn,VisibilityMPH,Wind Direction,Wind SpeedMPH,Gust SpeedMPH,PrecipitationIn,Events,Conditions,WindDirDegrees,DateUTC
12:54 AM,23.0,17.1,78,30.22,10.0,NE,4.6,-,N/A,,Overcast,40,2014-02-03 05:54:00
1:54 AM,23.0,17.1,78,30.21,10.0,NE,5.8,-,N/A,,Overcast,50,2014-02-03 06:54:00
2:54 AM,23.0,17.1,78,30.19,10.0,NNE,8.1,-,N/A,,Overcast,30,2014-02-03 07:54:00
3:39 AM,23.0,18.0,81,30.16,10.0,NE,8.1,-,N/A,,Overcast,40,2014-02-03 08:39:00
3:54 AM,23.0,18.0,81,30.19,10.0,NNE,9.2,-,N/A,,Overcast,30,2014-02-03 08:54:00
4:54 AM,21.9,18.0,85,30.18,9.0,NNE,10.4,-,N/A,,Overcast,30,2014-02-03 09:54:00
5:49 AM,21.2,17.6,86,30.13,9.0,NNE,10.4,-,N/A,,Overcast,30,2014-02-03 10:49:00
5:54 AM,21.9,18.0,85,30.19,9.0,NE,9.2,-,N/A,,Overcast,40,2014-02-03 10:54:00
6:31 AM,21.0,17.1,85,30.16,10.0,NNE,10.4,-,N/A,,Overcast,20,2014-02-03 11:31:00
6:54 AM,19.9,16.0,85,30.20,10.0,NNE,9.2,-,N/A,,Overcast,20,2014-02-03 11:54:00
7:40 AM,19.9,14.0,78,30.19,10.0,North,10.4,-,N/A,,Mostly Cloudy,10,2014-02-03 12:40:00
7:54 AM,19.9,12.9,74,30.24,10.0,NNE,8.1,-,N/A,,Scattered Clouds,20,2014-02-03 12:54:00
8:54 AM,19.9,12.9,74,30.27,10.0,NNE,9.2,-,N/A,,Partly Cloudy,20,2014-02-03 13:54:00
9:54 AM,19.9,12.9,74,30.28,10.0,North,10.4,-,N/A,,Partly Cloudy,10,2014-02-03 14:54:00
10:11 AM,21.0,14.0,74,30.24,10.0,NNE,6.9,-,N/A,,Mostly Cloudy,20,2014-02-03 15:11:00
10:43 AM,21.0,12.9,71,30.25,10.0,North,10.4,-,N/A,,Scattered Clouds,350,2014-02-03 15:43:00
10:54 AM,21.0,12.9,71,30.30,10.0,North,9.2,-,N/A,,Partly Cloudy,360,2014-02-03 15:54:00
11:46 AM,21.9,12.9,68,30.26,10.0,North,6.9,-,N/A,,Mostly Cloudy,350,2014-02-03 16:46:00
11:54 AM,23.0,12.9,65,30.31,10.0,NNW,9.2,-,N/A,,Scattered Clouds,330,2014-02-03 16:54:00
12:54 PM,25.0,14.0,63,30.29,10.0,Variable,4.6,-,N/A,,Clear,0,2014-02-03 17:54:00
1:54 PM,26.1,12.9,58,30.27,10.0,NNW,11.5,-,N/A,,Clear,340,2014-02-03 18:54:00
2:54 PM,27.0,12.9,56,30.28,10.0,North,9.2,-,N/A,,Clear,10,2014-02-03 19:54:00
3:54 PM,27.0,12.0,53,30.30,10.0,NNW,4.6,-,N/A,,Clear,340,2014-02-03 20:54:00
4:54 PM,26.1,12.9,58,30.32,10.0,North,6.9,-,N/A,,Clear,360,2014-02-03 21:54:00
5:54 PM,21.9,12.0,66,30.34,10.0,North,5.8,-,N/A,,Clear,350,2014-02-03 22:54:00
6:54 PM,19.9,12.0,71,30.35,10.0,North,5.8,-,N/A,,Clear,360,2014-02-03 23:54:00
7:54 PM,18.0,12.0,78,30.36,10.0,North,5.8,-,N/A,,Clear,360,2014-02-04 00:54:00
8:54 PM,17.1,12.0,81,30.39,10.0,North,3.5,-,N/A,,Clear,350,2014-02-04 01:54:00
9:54 PM,17.1,12.0,81,30.39,9.0,Calm,Calm,-,N/A,,Clear,0,2014-02-04 02:54:00
10:54 PM,16.0,12.0,84,30.39,8.0,Calm,Calm,-,N/A,,Clear,0,2014-02-04 03:54:00
11:54 PM,12.9,10.0,88,30.40,6.0,Calm,Calm,-,N/A,,Clear,0,2014-02-04 04:54:00